| time (UTC) | temp F | wind direction | speed knots | gust knots | rain 1hr in | rain 24hr in | rain mn in | humidity % | barometer mb |
| 20260510220928 | 89 | 260 | 6.1 | 11.3 | 0.00 | 0.00 | 0.00 | 37 | 1012.1 |
| 20260510220439 | 90 | 216 | 5.2 | 10.4 | 0.00 | 0.00 | 0.00 | 34 | 1012.3 |
| 20260510215924 | 90 | 209 | 5.2 | 8.7 | 0.00 | 0.00 | 0.00 | 35 | 1012.3 |
| 20260510215424 | 89 | 236 | 5.2 | 11.3 | 0.00 | 0.00 | 0.00 | 36 | 1012.3 |
| 20260510215154 | 89 | 223 | 5.2 | 11.3 | 0.00 | 0.00 | 0.00 | 35 | 1012.3 |
| 20260510214422 | 90 | 254 | 4.3 | 9.6 | 0.00 | 0.00 | 0.00 | 37 | 1012.5 |
| 20260510213919 | 89 | 230 | 4.3 | 9.6 | 0.00 | 0.00 | 0.00 | 36 | 1012.5 |
| 20260510213420 | 89 | 262 | 5.2 | 10.4 | 0.00 | 0.00 | 0.00 | 38 | 1012.5 |
| 20260510212918 | 88 | 221 | 5.2 | 10.4 | 0.00 | 0.00 | 0.00 | 37 | 1012.5 |
| 20260510212419 | 88 | 224 | 5.2 | 11.3 | 0.00 | 0.00 | 0.00 | 37 | 1012.5 |
| 20260510211916 | 88 | 222 | 6.1 | 11.3 | 0.00 | 0.00 | 0.00 | 37 | 1012.6 |
| 20260510211416 | 87 | 240 | 6.1 | 10.4 | 0.00 | 0.00 | 0.00 | 39 | 1012.6 |
| 20260510210928 | 88 | 225 | 5.2 | 9.6 | 0.00 | 0.00 | 0.00 | 37 | 1012.6 |
| 20260510210416 | 88 | 222 | 5.2 | 9.6 | 0.00 | 0.00 | 0.00 | 38 | 1012.7 |
| 20260510205915 | 88 | 223 | 5.2 | 9.6 | 0.00 | 0.00 | 0.00 | 38 | 1012.7 |
| 20260510205415 | 88 | 235 | 5.2 | 9.6 | 0.00 | 0.00 | 0.00 | 39 | 1012.8 |
| 20260510204916 | 87 | 223 | 5.2 | 9.6 | 0.00 | 0.00 | 0.00 | 39 | 1012.9 |
| 20260510204415 | 87 | 203 | 5.2 | 9.6 | 0.00 | 0.00 | 0.00 | 39 | 1013.0 |
| 20260510203916 | 87 | 227 | 5.2 | 9.6 | 0.00 | 0.00 | 0.00 | 41 | 1012.9 |
| 20260510203417 | 87 | 224 | 5.2 | 9.6 | 0.00 | 0.00 | 0.00 | 40 | 1013.0 |
| 20260510203147 | 87 | 238 | 4.3 | 10.4 | 0.00 | 0.00 | 0.00 | 41 | 1013.0 |
| 20260510202415 | 87 | 218 | 4.3 | 10.4 | 0.00 | 0.00 | 0.00 | 42 | 1013.0 |
| 20260510201928 | 86 | 235 | 5.2 | 9.6 | 0.00 | 0.00 | 0.00 | 43 | 1013.1 |
| 20260510201416 | 86 | 213 | 5.2 | 11.3 | 0.00 | 0.00 | 0.00 | 42 | 1013.1 |
| 20260510200413 | 86 | 213 | 4.3 | 8.7 | 0.00 | 0.00 | 0.00 | 44 | 1013.1 |
| 20260510200144 | 86 | 277 | 5.2 | 9.6 | 0.00 | 0.00 | 0.00 | 44 | 1013.2 |
| 20260510195413 | 85 | 229 | 5.2 | 9.6 | 0.00 | 0.00 | 0.00 | 42 | 1013.2 |
| 20260510195145 | 86 | 203 | 4.3 | 9.6 | 0.00 | 0.00 | 0.00 | 42 | 1013.1 |
| 20260510194413 | 86 | 221 | 4.3 | 9.6 | 0.00 | 0.00 | 0.00 | 40 | 1013.2 |
| 20260510193913 | 85 | 259 | 4.3 | 8.7 | 0.00 | 0.00 | 0.00 | 43 | 1013.2 |
| 20260510193414 | 85 | 242 | 4.3 | 8.7 | 0.00 | 0.00 | 0.00 | 42 | 1013.1 |
| 20260510192915 | 85 | 213 | 3.5 | 7.8 | 0.00 | 0.00 | 0.00 | 42 | 1013.2 |
| 20260510192414 | 84 | 259 | 3.5 | 8.7 | 0.00 | 0.00 | 0.00 | 42 | 1013.2 |
| 20260510191912 | 83 | 255 | 4.3 | 8.7 | 0.00 | 0.00 | 0.00 | 44 | 1013.3 |
| 20260510191409 | 82 | 225 | 4.3 | 8.7 | 0.00 | 0.00 | 0.00 | 44 | 1013.3 |
| 20260510190909 | 82 | 229 | 4.3 | 7.8 | 0.00 | 0.00 | 0.00 | 47 | 1013.3 |
| 20260510190640 | 81 | 227 | 4.3 | 7.8 | 0.00 | 0.00 | 0.00 | 48 | 1013.4 |
| 20260510185909 | 81 | 260 | 3.5 | 7.8 | 0.00 | 0.00 | 0.00 | 48 | 1013.4 |
| 20260510185407 | 80 | 197 | 3.5 | 7.0 | 0.00 | 0.00 | 0.00 | 50 | 1013.4 |
| 20260510184908 | 80 | 265 | 3.5 | 7.0 | 0.00 | 0.00 | 0.00 | 51 | 1013.4 |
| 20260510184405 | 79 | 232 | 2.6 | 6.1 | 0.00 | 0.00 | 0.00 | 55 | 1013.6 |
| 20260510183906 | 79 | 238 | 2.6 | 6.1 | 0.00 | 0.00 | 0.00 | 54 | 1013.6 |
| 20260510183406 | 78 | 247 | 2.6 | 7.0 | 0.00 | 0.00 | 0.00 | 55 | 1013.6 |
| 20260510182904 | 78 | 252 | 2.6 | 7.0 | 0.00 | 0.00 | 0.00 | 58 | 1013.6 |
| 20260510182633 | 77 | 226 | 2.6 | 5.2 | 0.00 | 0.00 | 0.00 | 58 | 1013.6 |
| 20260510181903 | 77 | 222 | 2.6 | 7.0 | 0.00 | 0.00 | 0.00 | 57 | 1013.7 |
| 20260510181402 | 77 | 222 | 1.7 | 7.0 | 0.00 | 0.00 | 0.00 | 60 | 1013.7 |
| 20260510180900 | 76 | 220 | 1.7 | 5.2 | 0.00 | 0.00 | 0.00 | 60 | 1013.7 |
| 20260510180400 | 76 | 219 | 1.7 | 6.1 | 0.00 | 0.00 | 0.00 | 61 | 1013.8 |
| 20260510175900 | 75 | 212 | 2.6 | 6.1 | 0.00 | 0.00 | 0.00 | 63 | 1013.7 |
| 20260510175413 | 75 | 210 | 1.7 | 4.3 | 0.00 | 0.00 | 0.00 | 64 | 1013.8 |
| 20260510174900 | 74 | 209 | 1.7 | 6.1 | 0.00 | 0.00 | 0.00 | 65 | 1013.8 |
| 20260510174357 | 74 | 209 | 1.7 | 6.1 | 0.00 | 0.00 | 0.00 | 67 | 1013.9 |
| 20260510173857 | 73 | 228 | 1.7 | 5.2 | 0.00 | 0.00 | 0.00 | 68 | 1013.8 |
| 20260510173358 | 72 | 228 | 1.7 | 4.3 | 0.00 | 0.00 | 0.00 | 70 | 1013.9 |
| 20260510172858 | 71 | 228 | 1.7 | 4.3 | 0.00 | 0.00 | 0.00 | 73 | 1013.8 |
| 20260510172357 | 71 | 227 | 1.7 | 5.2 | 0.00 | 0.00 | 0.00 | 74 | 1013.8 |
| 20260510172129 | 70 | 227 | 0.9 | 5.2 | 0.00 | 0.00 | 0.00 | 77 | 1013.8 |
| 20260510171628 | 69 | 227 | 0.0 | 2.6 | 0.00 | 0.00 | 0.00 | 79 | 1013.9 |
| 20260510170855 | 69 | 227 | 0.9 | 3.5 | 0.00 | 0.00 | 0.00 | 81 | 1013.9 |
| 20260510170356 | 67 | 227 | 0.9 | 3.5 | 0.00 | 0.00 | 0.00 | 83 | 1013.8 |
| 20260510170120 | 67 | 227 | 0.9 | 4.3 | 0.00 | 0.00 | 0.00 | 84 | 1013.8 |
| 20260510165622 | 66 | 227 | 0.9 | 4.3 | 0.00 | 0.00 | 0.00 | 84 | 1013.8 |
| 20260510164850 | 66 | 227 | 1.7 | 3.5 | 0.00 | 0.00 | 0.00 | 82 | 1013.8 |
| 20260510164349 | 65 | 227 | 1.7 | 4.3 | 0.00 | 0.00 | 0.00 | 81 | 1013.8 |
| 20260510163849 | 64 | 227 | 1.7 | 4.3 | 0.00 | 0.00 | 0.00 | 78 | 1013.8 |
| 20260510163348 | 64 | 227 | 0.9 | 3.5 | 0.00 | 0.00 | 0.00 | 76 | 1013.8 |
| 20260510162848 | 64 | 227 | 0.0 | 1.7 | 0.00 | 0.00 | 0.00 | 74 | 1013.8 |
| 20260510162349 | 63 | 227 | 0.0 | 3.5 | 0.00 | 0.00 | 0.00 | 74 | 1013.8 |
| 20260510161845 | 62 | 227 | 0.9 | 3.5 | 0.00 | 0.00 | 0.00 | 74 | 1013.8 |
| 20260510161618 | 62 | 227 | 0.9 | 3.5 | 0.00 | 0.00 | 0.00 | 74 | 1013.8 |
| 20260510160339 | 61 | 227 | 0.9 | 3.5 | 0.00 | 0.00 | 0.00 | 75 | 1013.8 |
| 20260510160111 | 61 | 227 | 0.9 | 3.5 | 0.00 | 0.00 | 0.00 | 75 | 1013.7 |
| 20260510155612 | 61 | 227 | 0.9 | 1.7 | 0.00 | 0.00 | 0.00 | 75 | 1013.8 |
| 20260510154837 | 61 | 227 | 0.9 | 2.6 | 0.00 | 0.00 | 0.00 | 75 | 1013.8 |
| 20260510154337 | 60 | 227 | 0.0 | 2.6 | 0.00 | 0.00 | 0.00 | 75 | 1013.8 |
| 20260510153836 | 60 | 227 | 0.9 | 3.5 | 0.00 | 0.00 | 0.00 | 76 | 1013.9 |
| 20260510153335 | 60 | 227 | 0.9 | 3.5 | 0.00 | 0.00 | 0.00 | 76 | 1013.8 |
| 20260510153108 | 60 | 227 | 0.9 | 3.5 | 0.00 | 0.00 | 0.00 | 76 | 1013.9 |
| 20260510152337 | 60 | 227 | 1.7 | 3.5 | 0.00 | 0.00 | 0.00 | 77 | 1013.9 |
| 20260510151830 | 60 | 227 | 0.9 | 3.5 | 0.00 | 0.00 | 0.00 | 76 | 1013.9 |
| 20260510151330 | 60 | 227 | 0.0 | 3.5 | 0.00 | 0.00 | 0.00 | 76 | 1013.9 |
| 20260510151113 | 60 | 227 | 0.0 | 3.5 | 0.00 | 0.00 | 0.00 | 77 | 1013.9 |
| 20260510150329 | 60 | 227 | 0.0 | 2.6 | 0.00 | 0.00 | 0.00 | 77 | 1013.9 |
| 20260510145825 | 60 | 227 | 0.9 | 2.6 | 0.00 | 0.00 | 0.00 | 77 | 1013.9 |
| 20260510145557 | 60 | 227 | 0.9 | 2.6 | 0.00 | 0.00 | 0.00 | 77 | 1013.8 |
| 20260510144826 | 60 | 227 | 0.9 | 2.6 | 0.00 | 0.00 | 0.00 | 77 | 1013.9 |
| 20260510144326 | 59 | 227 | 0.9 | 2.6 | 0.00 | 0.00 | 0.00 | 77 | 1013.9 |
| 20260510143820 | 59 | 227 | 0.0 | 1.7 | 0.00 | 0.00 | 0.00 | 77 | 1013.8 |
| 20260510143317 | 59 | 227 | 0.9 | 2.6 | 0.00 | 0.00 | 0.00 | 78 | 1013.8 |
| 20260510142819 | 59 | 231 | 0.9 | 2.6 | 0.00 | 0.00 | 0.00 | 78 | 1013.8 |
| 20260510142549 | 59 | 231 | 0.0 | 1.7 | 0.00 | 0.00 | 0.00 | 78 | 1013.7 |
| 20260510141816 | 59 | 231 | 0.0 | 1.7 | 0.00 | 0.00 | 0.00 | 78 | 1013.7 |
| 20260510141314 | 59 | 231 | 0.0 | 1.7 | 0.00 | 0.00 | 0.00 | 78 | 1013.7 |
| 20260510140809 | 59 | 231 | 0.0 | 0.0 | 0.00 | 0.00 | 0.00 | 79 | 1013.7 |
| 20260510140310 | 59 | 231 | 0.0 | 0.0 | 0.00 | 0.00 | 0.00 | 79 | 1013.6 |
| 20260510135810 | 59 | 231 | 0.9 | 1.7 | 0.00 | 0.00 | 0.00 | 79 | 1013.5 |
| 20260510135306 | 59 | 231 | 0.9 | 1.7 | 0.00 | 0.00 | 0.00 | 80 | 1013.5 |
| 20260510135034 | 59 | 231 | 0.0 | 1.7 | 0.00 | 0.00 | 0.00 | 80 | 1013.5 |
| 20260510134302 | 59 | 229 | 0.9 | 4.3 | 0.00 | 0.00 | 0.00 | 80 | 1013.4 |
| 20260510134035 | 59 | 229 | 1.7 | 4.3 | 0.00 | 0.00 | 0.00 | 80 | 1013.4 |
| 20260510133303 | 59 | 229 | 1.7 | 2.6 | 0.00 | 0.00 | 0.00 | 80 | 1013.3 |
| 20260510132802 | 59 | 229 | 0.9 | 2.6 | 0.00 | 0.00 | 0.00 | 80 | 1013.3 |
| 20260510132305 | 58 | 229 | 1.7 | 3.5 | 0.00 | 0.00 | 0.00 | 81 | 1013.2 |
| 20260510131804 | 58 | 229 | 1.7 | 4.3 | 0.00 | 0.00 | 0.00 | 81 | 1013.2 |
| 20260510131301 | 58 | 229 | 1.7 | 4.3 | 0.00 | 0.00 | 0.00 | 81 | 1013.2 |
| 20260510130759 | 58 | 229 | 0.9 | 3.5 | 0.00 | 0.00 | 0.00 | 81 | 1013.2 |
| 20260510130259 | 58 | 229 | 0.9 | 3.5 | 0.00 | 0.00 | 0.00 | 81 | 1013.1 |
| 20260510125756 | 58 | 229 | 0.9 | 3.5 | 0.00 | 0.00 | 0.00 | 82 | 1013.0 |
| 20260510125255 | 58 | 229 | 1.7 | 3.5 | 0.00 | 0.00 | 0.00 | 82 | 1013.0 |
| 20260510125029 | 58 | 229 | 2.6 | 4.3 | 0.00 | 0.00 | 0.00 | 83 | 1013.0 |
| 20260510124252 | 58 | 229 | 2.6 | 4.3 | 0.00 | 0.00 | 0.00 | 83 | 1013.0 |
| 20260510123751 | 58 | 229 | 2.6 | 5.2 | 0.00 | 0.00 | 0.00 | 83 | 1013.0 |
| 20260510123252 | 58 | 229 | 1.7 | 5.2 | 0.00 | 0.00 | 0.00 | 83 | 1013.0 |
| 20260510122746 | 58 | 229 | 0.9 | 3.5 | 0.00 | 0.00 | 0.00 | 84 | 1013.0 |
| 20260510122246 | 58 | 229 | 0.0 | 0.0 | 0.00 | 0.00 | 0.00 | 84 | 1013.0 |
| 20260510121747 | 58 | 229 | 0.9 | 2.6 | 0.00 | 0.00 | 0.00 | 84 | 1013.0 |
| 20260510121511 | 58 | 229 | 0.9 | 3.5 | 0.00 | 0.00 | 0.00 | 84 | 1013.0 |
| 20260510120737 | 58 | 229 | 0.0 | 3.5 | 0.00 | 0.00 | 0.00 | 84 | 1012.9 |
| 20260510120237 | 58 | 229 | 0.0 | 0.0 | 0.00 | 0.00 | 0.00 | 84 | 1012.9 |
| 20260510115234 | 58 | 229 | 0.0 | 0.0 | 0.00 | 0.00 | 0.00 | 84 | 1012.9 |
| 20260510114733 | 58 | 229 | 0.0 | 0.0 | 0.00 | 0.00 | 0.00 | 84 | 1012.8 |
| 20260510114225 | 58 | 229 | 0.0 | 0.0 | 0.00 | 0.00 | 0.00 | 85 | 1012.8 |
| 20260510113723 | 58 | 229 | 0.0 | 0.0 | 0.00 | 0.00 | 0.00 | 84 | 1012.8 |
| 20260510113224 | 58 | 229 | 0.0 | 0.0 | 0.00 | 0.00 | 0.00 | 85 | 1012.9 |
| 20260510112721 | 58 | 229 | 0.0 | 0.0 | 0.00 | 0.00 | 0.00 | 85 | 1012.9 |
| 20260510112220 | 58 | 229 | 0.0 | 0.0 | 0.00 | 0.00 | 0.00 | 85 | 1012.9 |
| 20260510111721 | 58 | 229 | 0.0 | 0.0 | 0.00 | 0.00 | 0.00 | 85 | 1012.9 |
| 20260510111217 | 58 | 229 | 0.9 | 2.6 | 0.00 | 0.00 | 0.00 | 85 | 1012.9 |
| 20260510110717 | 58 | 229 | 0.9 | 2.6 | 0.00 | 0.00 | 0.00 | 85 | 1012.9 |
| 20260510110447 | 58 | 229 | 0.9 | 1.7 | 0.00 | 0.00 | 0.00 | 85 | 1012.8 |
| 20260510105713 | 58 | 229 | 0.9 | 2.6 | 0.00 | 0.00 | 0.00 | 85 | 1012.9 |
| 20260510105213 | 58 | 229 | 0.9 | 2.6 | 0.00 | 0.00 | 0.00 | 85 | 1012.9 |
| 20260510104714 | 58 | 229 | 0.0 | 2.6 | 0.00 | 0.00 | 0.00 | 85 | 1013.0 |
| 20260510104445 | 58 | 229 | 0.0 | 0.0 | 0.00 | 0.00 | 0.00 | 85 | 1012.9 |
| 20260510103713 | 58 | 229 | 0.0 | 0.0 | 0.00 | 0.00 | 0.00 | 85 | 1012.9 |
| 20260510103444 | 59 | 229 | 0.0 | 0.0 | 0.00 | 0.00 | 0.00 | 85 | 1012.9 |
| 20260510102709 | 59 | 229 | 0.0 | 0.0 | 0.00 | 0.00 | 0.00 | 85 | 1012.9 |
| 20260510102207 | 59 | 229 | 0.0 | 0.0 | 0.00 | 0.00 | 0.00 | 85 | 1012.9 |
| 20260510101709 | 59 | 229 | 0.0 | 0.0 | 0.00 | 0.00 | 0.00 | 85 | 1012.9 |
| 20260510101205 | 59 | 229 | 0.0 | 0.0 | 0.00 | 0.00 | 0.00 | 85 | 1012.9 |
| 20260510100705 | 59 | 229 | 0.0 | 0.0 | 0.00 | 0.00 | 0.00 | 85 | 1012.9 |
| 20260510100204 | 59 | 229 | 0.0 | 0.0 | 0.00 | 0.00 | 0.00 | 85 | 1012.9 |
| 20260510095701 | 59 | 229 | 0.0 | 0.0 | 0.00 | 0.00 | 0.00 | 85 | 1013.0 |
| 20260510095200 | 59 | 229 | 0.0 | 0.0 | 0.00 | 0.00 | 0.00 | 85 | 1013.0 |
| 20260510094157 | 59 | 229 | 0.0 | 0.0 | 0.00 | 0.00 | 0.00 | 85 | 1012.9 |
| 20260510093657 | 59 | 229 | 0.0 | 0.0 | 0.00 | 0.00 | 0.00 | 85 | 1013.0 |
| 20260510093153 | 59 | 229 | 0.0 | 0.0 | 0.00 | 0.00 | 0.00 | 85 | 1012.9 |
| 20260510092654 | 59 | 229 | 0.0 | 0.0 | 0.00 | 0.00 | 0.00 | 85 | 1013.0 |
| 20260510092154 | 59 | 229 | 0.0 | 0.0 | 0.00 | 0.00 | 0.00 | 85 | 1013.0 |
| 20260510091655 | 59 | 229 | 0.0 | 0.0 | 0.00 | 0.00 | 0.00 | 85 | 1013.1 |
| 20260510091153 | 59 | 229 | 0.0 | 0.0 | 0.00 | 0.00 | 0.00 | 85 | 1013.1 |
| 20260510090652 | 60 | 229 | 0.0 | 0.0 | 0.00 | 0.00 | 0.00 | 85 | 1013.1 |
| 20260510090150 | 59 | 229 | 0.0 | 0.0 | 0.00 | 0.00 | 0.00 | 85 | 1013.0 |
| 20260510085920 | 60 | 229 | 0.0 | 0.0 | 0.00 | 0.00 | 0.00 | 85 | 1013.1 |
| 20260510085150 | 60 | 229 | 0.0 | 0.0 | 0.00 | 0.00 | 0.00 | 85 | 1013.1 |
| 20260510084650 | 60 | 229 | 0.0 | 0.0 | 0.00 | 0.00 | 0.00 | 85 | 1013.0 |
| 20260510084150 | 60 | 229 | 0.0 | 0.0 | 0.00 | 0.00 | 0.00 | 85 | 1013.1 |
| 20260510083647 | 60 | 229 | 0.0 | 0.0 | 0.00 | 0.00 | 0.00 | 85 | 1013.2 |
| 20260510083145 | 60 | 229 | 0.0 | 0.0 | 0.00 | 0.00 | 0.00 | 85 | 1013.1 |
| 20260510082646 | 60 | 229 | 0.0 | 0.0 | 0.00 | 0.00 | 0.00 | 85 | 1013.2 |
| 20260510082144 | 60 | 229 | 0.0 | 0.0 | 0.00 | 0.00 | 0.00 | 85 | 1013.2 |
| 20260510081642 | 60 | 229 | 0.0 | 0.0 | 0.00 | 0.00 | 0.00 | 84 | 1013.2 |
| 20260510081413 | 60 | 229 | 0.9 | 1.7 | 0.00 | 0.00 | 0.00 | 84 | 1013.3 |
| 20260510080639 | 60 | 229 | 0.9 | 2.6 | 0.00 | 0.00 | 0.00 | 84 | 1013.4 |
| 20260510080141 | 61 | 229 | 0.9 | 2.6 | 0.00 | 0.00 | 0.00 | 84 | 1013.4 |
| 20260510075640 | 61 | 229 | 0.0 | 1.7 | 0.00 | 0.00 | 0.00 | 84 | 1013.4 |
| 20260510075135 | 61 | 229 | 0.0 | 1.7 | 0.00 | 0.00 | 0.00 | 84 | 1013.4 |
| 20260510074636 | 61 | 229 | 0.0 | 0.9 | 0.00 | 0.00 | 0.00 | 84 | 1013.4 |
| 20260510074131 | 61 | 229 | 0.0 | 1.7 | 0.00 | 0.00 | 0.00 | 84 | 1013.4 |
| 20260510073631 | 61 | 229 | 0.0 | 1.7 | 0.00 | 0.00 | 0.00 | 84 | 1013.4 |
| 20260510073132 | 61 | 229 | 0.0 | 1.7 | 0.00 | 0.00 | 0.00 | 83 | 1013.5 |
| 20260510072902 | 61 | 229 | 0.9 | 2.6 | 0.00 | 0.00 | 0.00 | 83 | 1013.4 |
| 20260510072131 | 61 | 229 | 0.9 | 2.6 | 0.00 | 0.00 | 0.00 | 83 | 1013.5 |
| 20260510071904 | 61 | 229 | 0.9 | 1.7 | 0.00 | 0.00 | 0.00 | 83 | 1013.5 |
| 20260510071130 | 62 | 229 | 0.9 | 1.7 | 0.00 | 0.00 | 0.00 | 83 | 1013.6 |
| 20260510070632 | 62 | 229 | 0.9 | 2.6 | 0.00 | 0.00 | 0.00 | 83 | 1013.5 |
| 20260510070401 | 62 | 229 | 0.9 | 3.5 | 0.00 | 0.00 | 0.00 | 82 | 1013.5 |
| 20260510065632 | 62 | 229 | 1.7 | 3.5 | 0.00 | 0.00 | 0.00 | 82 | 1013.6 |
| 20260510065356 | 62 | 229 | 1.7 | 3.5 | 0.00 | 0.00 | 0.00 | 82 | 1013.6 |
| 20260510064857 | 62 | 229 | 1.7 | 3.5 | 0.00 | 0.00 | 0.00 | 82 | 1013.6 |
| 20260510064121 | 62 | 229 | 1.7 | 4.3 | 0.00 | 0.00 | 0.00 | 82 | 1013.6 |
| 20260510063351 | 63 | 229 | 1.7 | 4.3 | 0.00 | 0.00 | 0.00 | 82 | 1013.6 |
| 20260510062847 | 63 | 229 | 2.6 | 4.3 | 0.00 | 0.00 | 0.00 | 81 | 1013.6 |
| 20260510062116 | 63 | 229 | 2.6 | 4.3 | 0.00 | 0.00 | 0.00 | 81 | 1013.6 |
| 20260510061615 | 63 | 229 | 2.6 | 5.2 | 0.00 | 0.00 | 0.00 | 81 | 1013.6 |
| 20260510061115 | 63 | 229 | 1.7 | 5.2 | 0.00 | 0.00 | 0.00 | 81 | 1013.7 |
| 20260510060609 | 63 | 229 | 1.7 | 4.3 | 0.00 | 0.00 | 0.00 | 80 | 1013.6 |
| 20260510060112 | 63 | 229 | 1.7 | 4.3 | 0.00 | 0.00 | 0.00 | 80 | 1013.6 |
| 20260510055611 | 64 | 229 | 2.6 | 5.2 | 0.00 | 0.00 | 0.00 | 80 | 1013.5 |
| 20260510055109 | 64 | 229 | 2.6 | 6.1 | 0.00 | 0.00 | 0.00 | 80 | 1013.5 |
| 20260510054604 | 64 | 229 | 2.6 | 6.1 | 0.00 | 0.00 | 0.00 | 80 | 1013.5 |
| 20260510054102 | 64 | 229 | 1.7 | 4.3 | 0.00 | 0.00 | 0.00 | 79 | 1013.5 |
| 20260510053558 | 64 | 229 | 1.7 | 3.5 | 0.00 | 0.00 | 0.00 | 79 | 1013.5 |
| 20260510053057 | 64 | 229 | 1.7 | 4.3 | 0.00 | 0.00 | 0.00 | 79 | 1013.6 |
| 20260510052557 | 64 | 229 | 2.6 | 5.2 | 0.00 | 0.00 | 0.00 | 79 | 1013.6 |
| 20260510052324 | 64 | 229 | 2.6 | 5.2 | 0.00 | 0.00 | 0.00 | 78 | 1013.5 |
| 20260510051548 | 65 | 229 | 2.6 | 5.2 | 0.00 | 0.00 | 0.00 | 78 | 1013.4 |
| 20260510051049 | 65 | 229 | 2.6 | 4.3 | 0.00 | 0.00 | 0.00 | 77 | 1013.5 |
| 20260510050550 | 65 | 229 | 3.5 | 5.2 | 0.00 | 0.00 | 0.00 | 77 | 1013.4 |
| 20260510050059 | 65 | 229 | 3.5 | 6.1 | 0.00 | 0.00 | 0.00 | 76 | 1013.3 |
| 20260510045546 | 66 | 229 | 3.5 | 6.1 | 0.00 | 0.00 | 0.00 | 76 | 1013.3 |
| 20260510045315 | 66 | 230 | 3.5 | 6.1 | 0.00 | 0.00 | 0.00 | 75 | 1013.3 |
| 20260510044545 | 66 | 229 | 3.5 | 6.1 | 0.00 | 0.00 | 0.00 | 75 | 1013.3 |
| 20260510044042 | 66 | 230 | 2.6 | 6.1 | 0.00 | 0.00 | 0.00 | 75 | 1013.2 |
| 20260510043815 | 66 | 231 | 2.6 | 6.1 | 0.00 | 0.00 | 0.00 | 75 | 1013.1 |
| 20260510043036 | 67 | 231 | 3.5 | 6.1 | 0.00 | 0.00 | 0.00 | 74 | 1013.1 |
| 20260510042036 | 67 | 223 | 3.5 | 7.8 | 0.00 | 0.00 | 0.00 | 74 | 1012.9 |
| 20260510041536 | 67 | 222 | 4.3 | 7.8 | 0.00 | 0.00 | 0.00 | 73 | 1012.9 |
| 20260510041036 | 67 | 222 | 4.3 | 7.8 | 0.00 | 0.00 | 0.00 | 73 | 1012.7 |
| 20260510040533 | 67 | 223 | 4.3 | 7.0 | 0.00 | 0.00 | 0.00 | 72 | 1012.7 |
| 20260510040034 | 67 | 227 | 5.2 | 7.8 | 0.00 | 0.00 | 0.00 | 72 | 1012.6 |
| 20260510035534 | 68 | 232 | 5.2 | 7.8 | 0.00 | 0.00 | 0.00 | 71 | 1012.5 |
| 20260510035306 | 68 | 221 | 4.3 | 7.0 | 0.00 | 0.00 | 0.00 | 70 | 1012.6 |
| 20260510034534 | 68 | 219 | 3.5 | 7.0 | 0.00 | 0.00 | 0.00 | 70 | 1012.5 |
| 20260510034035 | 69 | 222 | 3.5 | 7.0 | 0.00 | 0.00 | 0.00 | 69 | 1012.3 |
| 20260510033805 | 69 | 222 | 3.5 | 7.0 | 0.00 | 0.00 | 0.00 | 68 | 1012.2 |
| 20260510033034 | 69 | 222 | 3.5 | 6.1 | 0.00 | 0.00 | 0.00 | 67 | 1012.2 |
| 20260510032535 | 70 | 223 | 4.3 | 6.1 | 0.00 | 0.00 | 0.00 | 67 | 1012.1 |
| 20260510032033 | 70 | 223 | 5.2 | 8.7 | 0.00 | 0.00 | 0.00 | 67 | 1012.1 |
| 20260510031532 | 70 | 222 | 5.2 | 8.7 | 0.00 | 0.00 | 0.00 | 66 | 1012.0 |
| 20260510031032 | 71 | 223 | 5.2 | 8.7 | 0.00 | 0.00 | 0.00 | 65 | 1011.9 |
| 20260510030532 | 71 | 225 | 4.3 | 8.7 | 0.00 | 0.00 | 0.00 | 64 | 1011.8 |
| 20260510030030 | 71 | 221 | 4.3 | 8.7 | 0.00 | 0.00 | 0.00 | 63 | 1011.8 |
| 20260510025802 | 72 | 219 | 5.2 | 9.6 | 0.00 | 0.00 | 0.00 | 63 | 1011.7 |
| 20260510025023 | 72 | 219 | 6.1 | 10.4 | 0.00 | 0.00 | 0.00 | 62 | 1011.7 |
| 20260510024525 | 73 | 217 | 5.2 | 10.4 | 0.00 | 0.00 | 0.00 | 61 | 1011.6 |
| 20260510024024 | 73 | 227 | 4.3 | 7.8 | 0.00 | 0.00 | 0.00 | 60 | 1011.5 |
| 20260510023025 | 74 | 222 | 5.2 | 9.6 | 0.00 | 0.00 | 0.00 | 58 | 1011.4 |
| 20260510022523 | 75 | 225 | 5.2 | 11.3 | 0.00 | 0.00 | 0.00 | 57 | 1011.4 |
| 20260510022023 | 75 | 217 | 5.2 | 11.3 | 0.00 | 0.00 | 0.00 | 56 | 1011.3 |
| 20260510021520 | 76 | 221 | 6.1 | 12.2 | 0.00 | 0.00 | 0.00 | 54 | 1011.3 |
| 20260510021018 | 76 | 228 | 7.0 | 12.2 | 0.00 | 0.00 | 0.00 | 53 | 1011.2 |
| 20260510020801 | 77 | 226 | 7.0 | 10.4 | 0.00 | 0.00 | 0.00 | 52 | 1011.2 |
| 20260510015516 | 77 | 221 | 7.0 | 10.4 | 0.00 | 0.00 | 0.00 | 50 | 1011.2 |
| 20260510015016 | 78 | 220 | 7.0 | 10.4 | 0.00 | 0.00 | 0.00 | 50 | 1011.1 |
| 20260510014517 | 78 | 219 | 7.0 | 10.4 | 0.00 | 0.00 | 0.00 | 49 | 1011.0 |
| 20260510014012 | 78 | 219 | 7.0 | 11.3 | 0.00 | 0.00 | 0.00 | 48 | 1011.0 |
| 20260510013512 | 79 | 217 | 7.0 | 12.2 | 0.00 | 0.00 | 0.00 | 46 | 1011.0 |
| 20260510013012 | 80 | 215 | 6.1 | 12.2 | 0.00 | 0.00 | 0.00 | 46 | 1011.0 |
| 20260510012513 | 80 | 223 | 6.1 | 9.6 | 0.00 | 0.00 | 0.00 | 46 | 1010.9 |
| 20260510012240 | 81 | 230 | 5.2 | 9.6 | 0.00 | 0.00 | 0.00 | 45 | 1010.8 |
| 20260510011509 | 81 | 226 | 6.1 | 14.8 | 0.00 | 0.00 | 0.00 | 43 | 1010.8 |
| 20260510011008 | 81 | 218 | 7.0 | 14.8 | 0.00 | 0.00 | 0.00 | 43 | 1010.8 |
| 20260510010737 | 82 | 227 | 6.1 | 13.9 | 0.00 | 0.00 | 0.00 | 42 | 1010.8 |
| 20260510010005 | 82 | 236 | 7.0 | 13.9 | 0.00 | 0.00 | 0.00 | 42 | 1010.8 |
| 20260510005504 | 82 | 227 | 7.0 | 12.2 | 0.00 | 0.00 | 0.00 | 42 | 1010.7 |
| 20260510005235 | 82 | 220 | 7.8 | 13.0 | 0.00 | 0.00 | 0.00 | 41 | 1010.7 |
| 20260510004502 | 82 | 232 | 8.7 | 14.8 | 0.00 | 0.00 | 0.00 | 42 | 1010.7 |
| 20260510004232 | 82 | 221 | 8.7 | 14.8 | 0.00 | 0.00 | 0.00 | 41 | 1010.6 |
| 20260510003500 | 83 | 214 | 7.0 | 13.0 | 0.00 | 0.00 | 0.00 | 41 | 1010.6 |
| 20260510003231 | 83 | 232 | 7.8 | 13.9 | 0.00 | 0.00 | 0.00 | 41 | 1010.6 |
| 20260510002730 | 83 | 222 | 7.8 | 13.9 | 0.00 | 0.00 | 0.00 | 42 | 1010.6 |
| 20260510001958 | 84 | 221 | 7.0 | 13.9 | 0.00 | 0.00 | 0.00 | 41 | 1010.6 |
| 20260510001458 | 84 | 227 | 7.8 | 13.9 | 0.00 | 0.00 | 0.00 | 43 | 1010.6 |
| 20260510001011 | 84 | 240 | 8.7 | 13.9 | 0.00 | 0.00 | 0.00 | 41 | 1010.5 |
| 20260510000458 | 84 | 209 | 7.8 | 13.9 | 0.00 | 0.00 | 0.00 | 41 | 1010.6 |
| 20260509235957 | 85 | 257 | 7.8 | 13.9 | 0.00 | 0.00 | 0.00 | 41 | 1010.6 |
| 20260509235454 | 85 | 216 | 7.0 | 13.9 | 0.00 | 0.00 | 0.00 | 40 | 1010.7 |
| 20260509234955 | 85 | 213 | 7.0 | 13.0 | 0.00 | 0.00 | 0.00 | 41 | 1010.6 |
| 20260509234450 | 86 | 227 | 7.0 | 13.0 | 0.00 | 0.00 | 0.00 | 41 | 1010.6 |
| 20260509233950 | 86 | 225 | 6.1 | 13.0 | 0.00 | 0.00 | 0.00 | 39 | 1010.7 |
| 20260509233451 | 86 | 226 | 6.1 | 12.2 | 0.00 | 0.00 | 0.00 | 41 | 1010.6 |
| 20260509232944 | 87 | 219 | 6.1 | 12.2 | 0.00 | 0.00 | 0.00 | 37 | 1010.6 |
| 20260509232444 | 87 | 263 | 6.1 | 11.3 | 0.00 | 0.00 | 0.00 | 37 | 1010.7 |
| 20260509232214 | 86 | 216 | 6.1 | 12.2 | 0.00 | 0.00 | 0.00 | 39 | 1010.7 |
| 20260509231443 | 87 | 225 | 6.1 | 12.2 | 0.00 | 0.00 | 0.00 | 37 | 1010.6 |
| 20260509230943 | 87 | 225 | 6.1 | 11.3 | 0.00 | 0.00 | 0.00 | 37 | 1010.7 |
| 20260509230445 | 87 | 253 | 6.1 | 12.2 | 0.00 | 0.00 | 0.00 | 38 | 1010.6 |
| 20260509225944 | 87 | 248 | 6.1 | 12.2 | 0.00 | 0.00 | 0.00 | 38 | 1010.8 |
| 20260509225444 | 87 | 213 | 6.1 | 11.3 | 0.00 | 0.00 | 0.00 | 38 | 1010.8 |
| 20260509224943 | 87 | 255 | 6.1 | 13.0 | 0.00 | 0.00 | 0.00 | 37 | 1010.8 |
| 20260509224439 | 87 | 216 | 6.1 | 13.0 | 0.00 | 0.00 | 0.00 | 38 | 1010.9 |
| 20260509223938 | 87 | 242 | 7.0 | 13.0 | 0.00 | 0.00 | 0.00 | 39 | 1010.9 |
| 20260509223709 | 88 | 236 | 6.1 | 13.0 | 0.00 | 0.00 | 0.00 | 38 | 1010.9 |
| 20260509222938 | 88 | 232 | 5.2 | 10.4 | 0.00 | 0.00 | 0.00 | 39 | 1010.9 |
| 20260509222438 | 88 | 267 | 6.1 | 9.6 | 0.00 | 0.00 | 0.00 | 39 | 1011.0 |
| 20260509222209 | 88 | 267 | 6.1 | 10.4 | 0.00 | 0.00 | 0.00 | 37 | 1011.0 |
| 20260509221437 | 87 | 259 | 5.2 | 11.3 | 0.00 | 0.00 | 0.00 | 39 | 1011.1 |